User: anonymous
Location: Unspecified
(0.0000°N, 0.0000°E)
Time: 22:52:18
(UTC+02:00)
Language:

CZ-4B DEB - Orbit

View from above orbital plane
View from above orbital plane
View from above satellite
View from above satellite

Ground track
Ground track

The orbit data is extracted from the following two-line orbital elements,

1 33411U 08053D   14210.16017190  .00008773  00000-0  51892-3 0  2379
2 33411 097.5127 228.8833 0012523 114.9067 245.3466 15.11621405314633
Epoch (UTC): 29 July 2014 03:50:38
Eccentricity: 0.0012523
inclination: 97.5127°
perigee height: 522 km
apogee height: 540 km
right ascension of ascending node: 228.8833°
argument of perigee: 114.9067°
revolutions per day: 15.11621405
mean anomaly at epoch: 245.3466°
orbit number at epoch: 31463

The dashed part of the orbit path shows where the satellite is in the earth's shadow,  

DLR